Location: Harmony
(28.2000°N, 81.1500°W)
Time: 20:17:55
(UTC-04:00)

Daily predictions for brighter satellites

Satellite Brightness Start Highest point End
(mag) Time Altitude Azimuth Time Altitude Azimuth Time Altitude Azimuth
NOSS 3-2 (C) 4.1 20:33:25 10° NNW 20:41:12 77° ENE 20:49:22 10° SSE
Meteosat 1 Rocket2 4.0 20:39:07 10° WSW 20:44:21 70° SSE 20:52:31 10° E
Cosmos 2181 Rocket 4.5 20:38:44 10° N 20:44:48 43° E 20:50:47 10° SSE
NOSS 3-2 (A) 4.2 20:38:59 10° NNW 20:46:46 82° WSW 20:54:56 10° SSE
CENTAUR R/B 4.2 20:43:35 10° N 20:50:06 27° NE 20:56:49 10° ESE
Cosmos 1709 Rocket 4.0 20:45:58 10° S 20:52:04 89° E 20:58:15 10° N
Cosmos 1356 Rocket 4.4 20:49:07 10° SSE 20:52:40 28° E 20:56:17 10° NNE
USA 186 2.5 20:50:32 10° SE 20:53:09 31° ENE 20:55:57 10° N
CZ-4C R/B 3.9 20:48:05 10° NW 20:55:14 48° WSW 21:02:45 10° S
Cosmos 1943 3.2 20:49:41 10° NNW 20:55:20 74° ENE 21:00:55 10° SSE
NOSS 2-2 (D) 3.5 20:51:40 10° SSW 20:55:37 55° ESE 20:59:47 10° NE
Cosmos 1933 3.5 20:52:32 10° N 20:56:39 82° W 21:00:44 10° S
Cosmos 1844 Rocket 3.6 20:52:47 10° SSE 20:57:26 27° ESE 21:02:07 10° NE
Cosmos 2074 Rocket 4.5 20:53:37 10° SSE 20:59:24 40° E 21:05:11 10° NNE
Meteor 2-3 Rocket 3.7 20:55:22 10° S 21:00:58 69° E 21:06:32 10° NNE
CZ-2D R/B 3.2 20:58:55 10° SSE 21:02:42 70° ENE 21:06:29 10° N
Cosmos 1869 Rocket 4.4 21:00:10 10° SSW 21:04:29 56° W 21:08:49 10° N
H-2A R/B 4.0 21:04:04 11° E 21:06:04 15° ENE 21:08:25 10° NE
Meteor 1-26 Rocket 4.3 21:03:15 10° N 21:09:07 73° E 21:14:59 10° SSE
NOSS 2-2 (C) 3.3 21:06:15 10° SSW 21:10:16 87° ESE 21:14:34 10° NNE
Cosmos 2263 Rocket 4.0 21:07:24 10° SW 21:12:32 35° WNW 21:17:41 10° N
FENGYUN 3A 3.6 21:08:02 10° SSE 21:13:26 87° ENE 21:18:51 10° NNW
Cosmos 1340 Rocket 2.7 21:09:57 10° S 21:13:54 89° ESE 21:17:55 10° N
Resurs 01 Rocket 4.0 21:13:35 10° SSW 21:17:04 23° W 21:20:35 10° NW
Cosmos 1624 Rocket 3.9 21:13:07 10° S 21:18:18 69° ESE 21:23:34 10° NNE
Envisat 4.2 21:16:53 17° ESE 21:19:32 25° ENE 21:23:37 10° NNE
Cosmos 1939 Rocket 4.0 21:20:37 20° ESE 21:22:02 24° ENE 21:25:11 10° NNE
Atlas Centaur 2 1.2 21:20:11 10° W 21:23:44 65° N 21:26:36 15° ENE
SEDSat Delta rocket 4.4 21:22:37 10° SSW 21:25:16 18° SSE 21:25:16 18° SSE
Cosmos 1782 4.2 21:24:40 10° NNE 21:27:46 21° E 21:28:20 20° E
Sich 1 Rocket 4.4 21:26:33 21° SE 21:28:49 32° E 21:32:54 10° NNE
Okean 1-7 3.4 21:25:58 10° NNW 21:30:14 64° W 21:34:30 10° S
SPOT 5 4.4 21:28:50 19° E 21:30:45 23° ENE 21:34:52 10° NNE
ALOS 3.0 21:26:32 10° S 21:31:04 52° W 21:35:38 10° NNW
Meteor 2-10 Rocket 3.8 21:31:41 10° N 21:37:26 62° E 21:41:13 21° SSE
ISS -1.5 21:36:36 10° SSW 21:37:38 18° S 21:37:38 18° S
Cosmos 1674 Rocket 4.3 21:36:52 10° NNE 21:40:56 34° E 21:41:52 31° ESE
Cosmos 1452 Rocket 3.9 21:39:11 20° SSE 21:42:14 40° E 21:47:07 10° NNE
Cosmos 1892 3.2 21:38:30 10° SSW 21:42:15 59° W 21:46:02 10° N
H-2A R/B 4.3 21:41:27 10° SSW 21:44:46 32° W 21:48:07 10° NW
ERS-1 Rocket 2.9 21:42:14 22° SSE 21:45:28 77° ENE 21:50:30 10° N
GPS 2-05 Rocket1 3.0 21:47:39 10° WSW 21:51:20 75° NNW 21:52:52 32° ENE
OAO 1 Rocket 4.5 21:48:54 10° SW 21:54:03 54° SSE 21:56:10 33° E
Coronas F rocket 3.9 21:56:27 10° SW 21:58:32 21° W 22:00:38 10° NNW
CZ-4 DEB 4.4 21:57:43 21° SSW 21:59:13 31° W 22:02:06 10° NW
Meteor 2-6 Rocket 4.3 21:55:01 10° N 22:00:53 61° E 22:03:01 38° SE
Cosmos 2154 Rocket 3.9 21:59:09 24° S 22:03:02 67° E 22:09:11 10° NNE
Abrixas rocket 2.6 22:00:52 10° NW 22:04:01 57° NNE 22:04:01 57° NNE
MetOp-B 4.5 22:07:40 42° ESE 22:08:34 46° ENE 22:13:39 10° N
USA 234 3.1 22:03:06 10° NE 22:09:34 63° SE 22:15:58 10° SSW
Cosmos 1908 Rocket 3.4 22:10:37 56° S 22:11:31 85° E 22:15:56 10° N
CZ-4B R/B 3.6 22:09:34 10° NNE 22:14:00 50° E 22:14:00 50° E
COSMOS 2406 3.1 22:13:06 10° NNW 22:18:52 88° ENE 22:20:21 52° SSE
ARGOS 4.0 22:19:51 34° ENE 22:19:51 34° ENE 22:24:31 10° N
Cosmos 1378 Rocket 4.2 22:21:04 10° N 22:24:19 44° NE 22:24:19 44° NE
ATLAS 5 CENTAUR R/B 2.4 22:21:11 10° NNW 22:27:26 83° ENE 22:28:52 57° SE
deb Centaur AC-2 4.4 22:21:55 10° W 22:27:33 72° N 22:28:18 60° NE
Cosmos 1862 3.6 22:28:46 66° WNW 22:28:46 66° WNW 22:32:38 10° N
CZ-3C R/B 3.0 22:01:16 10° WSW 22:29:23 45° S 22:30:49 42° SSE
Cosmos 2278 Rocket 2.1 22:27:11 32° SSW 22:29:58 87° WNW 22:35:40 10° NNE
Cosmos 1825 3.3 22:37:57 42° NNW 22:37:57 42° NNW 22:40:44 10° N
Cosmos 2084 4.3 22:37:52 42° WNW 22:37:57 42° WNW 22:41:36 10° NNE
Delta 198 4.5 22:32:13 10° W 22:38:38 62° S 22:38:59 61° S
CENTAUR R/B 3.4 22:33:17 10° NW 22:41:17 64° WSW 22:44:20 41° S
H-2A R/B 3.3 22:41:12 33° WSW 22:41:45 34° W 22:45:41 10° NNW
SL-27 R/B 4.3 22:40:29 10° NNW 22:42:44 31° NW 22:42:44 31° NW
Cosmos 2082 Rocket 4.1 22:52:42 10° NNE 22:55:25 17° NE 22:55:25 17° NE
Cosmos 2218 Rocket 4.1 22:59:14 67° NE 22:59:14 67° NE 23:05:00 10° N
Meteor 1-27 Rocket 4.2 22:55:08 10° NNW 23:00:29 50° W 23:00:52 49° WSW
Cosmos 2297 4.2 23:02:58 51° NNE 23:02:58 51° NNE 23:07:10 10° NNE
Okean 2 Rocket 4.4 23:02:50 39° NW 23:02:50 39° NW 23:05:57 10° N
H-2A R/B 3.2 23:05:41 36° NNE 23:05:41 36° NNE 23:09:13 10° N
SPOT 5 4.4 23:08:05 31° WSW 23:08:31 31° W 23:13:11 10° NW
Centaur AC-125 4.0 22:50:59 10° WSW 23:07:46 59° SSW 23:07:46 59° SSW
Atlas Centaur 2 4.0 23:08:51 10° WNW 23:09:16 13° WNW 23:09:16 13° WNW
Terra 3.6 23:21:18 26° N 23:21:18 26° N 23:23:25 10° N
